This demonstration page uses our WeatherBlox Daily Observations layout. Learn more.

Left ArrowRight Arrow

Hourly Observations for June 4, 2017

Temp ( °F °C ) Dew Point ( °F °C ) Humidity (%) Winds ( mph kmh ) Pressure ( in mb ) Visibility ( mi km ) Precip ( " mm )
12:56 am 00:56 Clear 64 17.6 62 16.6 94 94 Calm 29.92 1013 10 16 0.00 0.00
1:56 am 01:56 Clear 66 19 62 16.8 87 87 Calm 29.93 1013 10 16 0.00 0.00
2:56 am 02:56 Clear 67 19.7 63 17.1 85 85 W 3 6 29.92 1013 10 16 0.00 0.00
3:56 am 03:56 Clear 66 18.7 63 17 90 90 Calm 29.91 1013 10 16 0.00 0.00
4:56 am 04:56 Clear 64 17.6 62 16.8 95 95 Calm 29.91 1013 10 16 0.00 0.00
5:56 am 05:56 Sunny 62 16.7 61 15.9 95 95 Calm 29.91 1013 10 16 0.00 0.00
6:56 am 06:56 Sunny 65 18.5 64 17.8 96 96 Calm 29.91 1013 10 16 0.00 0.00
7:56 am 07:56 Sunny 71 21.7 66 19 85 85 Calm 29.91 1013 10 16 0.00 0.03
8:56 am 08:56 Sunny 76 24.6 66 18.7 70 70 WNW 3 6 29.91 1013 10 16 0.00 0.03
9:56 am 09:56 Sunny 80 26.7 65 18.3 60 60 W 6 9 29.89 1012 10 16 0.00 0.00
10:56 am 10:56 Sunny 83 28.1 66 18.7 57 57 WSW 3 6 29.90 1012 10 16 0.00 0.00
11:56 am 11:56 Sunny 85 29.6 67 19.3 54 54 S 3 6 29.89 1012 10 16 0.00 0.00
12:56 pm 12:56 Sunny 86 30.2 64 17.9 48 48 SE 3 6 29.88 1012 10 16 0.00 0.00
1:56 pm 13:56 Sunny 88 30.9 62 16.8 43 43 Calm 29.85 1011 10 16 0.00 0.00
2:56 pm 14:56 Sunny 89 31.6 64 17.5 43 43 Calm 29.83 1010 10 16 0.00 0.00
3:56 pm 15:56 Sunny 90 32.4 59 14.9 35 35 N 6 9 29.81 1010 10 16 0.00 0.00
4:56 pm 16:56 Sunny 90 32 58 14.6 35 35 ENE 10 17 29.80 1009 10 16 0.00 0.00
5:56 pm 17:56 Sunny 90 32.4 60 15.4 36 36 Calm 29.79 1009 10 16 0.00 0.00
6:56 pm 18:56 Sunny 90 32.4 62 16.6 39 39 Calm 29.79 1009 10 16 0.00 0.00
7:56 pm 19:56 Sunny 85 29.4 64 17.9 50 50 S 6 9 29.79 1009 10 16 0.00 0.00
8:56 pm 20:56 Clear 76 24.4 64 17.6 66 66 E 5 7 29.79 1009 10 16 0.00 0.00
9:56 pm 21:56 Clear 71 21.6 65 18.2 81 81 Calm 29.81 1009 10 16 0.00 0.00
10:56 pm 22:56 Clear 69 20.6 64 17.6 83 83 Calm 29.82 1010 10 16 0.00 0.00
11:56 pm 23:56 Clear 67 19.7 63 17.3 86 86 Calm 29.83 1010 10 16 0.00 0.00

Powered by AerisWeather